Wind_Speed
64 59 55 52 47 43 40 36 32 27 21 16 12 10 8 4 4 6 9 11 13 14 14 14 15 14 11 13 15 15 15 17 21 25 26 27 30 32 35 41 47 50 53 56 57 60 63 69 71 72 73 76 79 83
65 65 60 58 55 50 46 44 39 34 28 22 18 16 14 12 10 7 5 7 8 10 11 9 9 10 10 10 11 14 13 12 11 11 13 18 22 26 30 33 37 46 48 52 52 50 54 60 62 63 65 68 70 76
67 68 65 63 61 58 52 49 45 40 36 30 25 21 18 18 17 14 11 10 9 7 6 6 6 6 8 9 9 6 8 9 8 9 12 16 17 20 24 28 37 39 40 44 45 56 60 62 65 64 68 74 78 82
69 67 67 69 65 65 61 56 52 48 44 40 34 30 26 23 22 20 19 19 17 16 13 12 12 10 12 12 12 13 13 12 13 16 21 24 26 27 30 34 45 43 46 50 55 63 63 68 73 74 77 83 83 86
77 74 70 70 70 69 68 65 61 56 52 48 44 39 36 32 28 27 27 26 25 23 22 21 18 19 18 18 19 20 19 19 21 24 27 30 33 32 34 42 54 51 54 55 58 64 65 71 76 77 82 85 87 90
86 80 76 71 71 73 71 71 68 64 61 57 54 48 45 42 38 33 34 34 32 30 30 30 27 29 28 27 27 23 25 26 29 30 33 36 37 38 41 51 57 54 59 63 66 71 74 77 83 86 89 93 96 99
94 86 84 78 75 76 78 75 74 72 69 65 63 59 54 50 47 42 38 40 41 41 41 39 39 38 38 37 36 35 32 33 36 38 43 46 48 47 51 62 62 64 66 70 73 75 78 83 88 92 96 99 101 107
100 94 90 86 82 79 79 81 77 76 74 72 71 67 63 58 54 53 50 49 47 47 47 47 48 48 44 42 43 43 43 45 45 45 51 52 50 55 66 69 71 72 73 76 80 85 89 92 96 100 103 107 109 113
107 102 97 93 89 85 81 83 82 77 76 77 76 74 71 69 65 61 56 54 54 55 55 56 58 58 54 52 52 52 52 53 51 55 58 57 60 64 78 79 81 81 80 84 89 94 99 100 102 107 110 114 118 122
113 110 104 101 98 93 88 86 87 84 79 78 79 78 76 77 76 71 67 63 61 60 61 63 67 65 63 63 63 61 60 63 62 63 66 63 65 77 85 86 86 91 94 95 97 100 103 109 112 115 117 120 124 125
117 116 112 108 104 101 95 91 88 90 85 82 80 79 78 81 81 81 77 73 72 69 69 72 73 72 73 72 71 68 67 67 64 66 72 69 71 87 89 89 92 94 96 101 106 110 112 114 117 118 122 125 128 130
115 119 117 115 110 108 105 100 95 91 91 88 85 83 82 81 79 78 78 80 79 80 79 82 81 80 79 78 78 78 80 77 74 74 76 74 88 90 89 91 93 96 101 105 111 113 116 120 121 125 125 128 131 125
112 117 121 120 117 114 111 107 101 98 95 95 91 87 83 83 82 77 78 81 83 82 86 85 85 84 83 84 83 83 83 84 83 82 81 89 90 91 94 96 99 102 106 110 115 120 122 124 126 128 132 131 128 118
106 113 118 125 124 121 117 114 111 107 104 101 98 95 90 85 85 85 85 85 84 83 83 85 87 88 90 90 88 89 88 89 90 90 98 99 97 99 101 103 106 111 116 121 124 126 125 127 127 128 132 127 116 108
104 106 113 118 126 125 122 120 118 115 113 108 104 103 96 95 94 93 93 94 93 90 91 92 93 93 93 92 94 95 97 95 96 106 103 102 103 105 109 112 115 121 124 124 128 126 128 129 131 131 122 112 108 103
99 104 106 111 116 124 127 126 123 122 119 117 112 106 104 105 106 106 105 102 101 100 100 101 100 100 100 101 101 103 104 106 110 108 108 108 110 113 118 121 125 129 129 132 130 131 133 129 129 119 111 105 101 98
93 99 106 107 109 116 121 128 128 127 125 119 112 111 111 112 114 113 113 113 112 110 110 109 106 106 104 104 105 108 113 114 113 112 113 117 120 121 122 123 127 131 131 131 134 132 127 125 118 109 104 98 96 95
95 95 97 103 106 109 116 121 126 133 127 119 114 116 121 121 120 118 117 120 122 121 119 115 112 110 110 111 114 118 116 116 116 118 121 124 128 129 130 130 132 132 134 131 129 123 119 113 104 102 98 94 93 90
92 94 95 97 101 105 110 114 117 121 121 121 122 124 130 126 121 124 127 129 129 128 125 120 118 115 119 123 123 121 121 122 122 124 125 127 130 130 131 133 132 130 127 124 118 113 109 103 99 95 91 90 87 82
89 92 94 96 99 101 103 106 109 111 113 117 119 121 122 126 130 133 132 132 136 137 131 125 123 128 129 128 127 124 125 126 127 130 131 132 132 132 126 124 124 120 115 110 107 103 99 96 92 89 88 84 79 78
87 87 90 94 96 97 97 99 97 99 104 106 108 112 115 118 120 121 121 122 124 118 118 124 130 131 132 129 129 127 127 130 129 128 125 124 122 115 114 115 112 107 104 99 97 95 92 88 85 84 80 76 77 78
82 86 87 88 91 92 93 88 82 82 87 96 102 104 108 111 112 113 115 115 113 114 120 121 121 122 124 122 121 120 122 121 120 118 116 112 110 109 106 103 99 98 95 92 90 87 82 81 78 76 75 76 77 75
72 76 82 83 83 81 80 79 76 74 76 83 87 93 98 104 108 111 111 110 107 111 116 116 117 115 112 109 111 112 112 108 107 106 101 98 96 96 95 94 92 90 87 84 81 78 77 75 75 75 76 75 73 73
60 64 70 74 73 70 66 70 71 74 73 77 82 84 87 91 98 103 101 99 103 105 107 106 104 102 100 101 99 98 99 96 93 90 91 91 91 91 90 87 85 81 78 77 76 75 75 75 75 75 73 72 72 72
54 54 55 56 58 58 62 67 72 72 75 81 82 84 84 86 87 85 82 88 94 94 93 94 96 94 87 85 85 84 85 85 85 85 85 85 83 82 81 79 75 75 74 73 74 75 75 74 74 73 71 71 71 71
44 42 46 51 55 60 63 68 72 75 78 77 73 72 76 78 75 65 69 78 80 83 85 87 86 81 80 81 79 78 79 79 78 76 75 74 73 72 71 71 71 70 71 72 74 73 72 73 71 71 71 70 69 69
42 48 53 55 56 57 61 64 65 65 64 62 61 61 60 59 59 64 74 78 77 77 75 73 71 68 68 70 70 71 71 70 69 69 69 70 70 71 70 70 69 70 71 71 71 71 71 71 70 70 70 69 67 66
40 43 46 47 47 50 50 49 51 52 52 51 55 55 51 50 57 61 65 65 66 66 65 65 64 65 66 66 66 67 67 67 67 68 69 69 69 69 69 68 68 69 69 69 69 69 69 68 68 68 67 67 67 64
32 32 33 36 37 39 45 47 47 49 51 48 50 49 49 50 52 53 54 54 55 57 60 62 63 64 64 65 66 66 66 66 66 66 66 66 67 66 66 66 67 67 67 66 66 66 66 66 64 64 64 63 63 61
30 32 33 36 38 41 40 42 43 44 44 44 45 46 46 47 49 50 52 54 56 58 60 60 61 61 62 62 63 62 62 62 62 63 65 65 64 63 63 64 64 64 64 64 64 63 62 61 60 59 58 57 56 55
29 31 32 33 33 34 35 38 39 41 42 43 44 46 47 48 50 51 53 55 55 55 56 56 56 57 57 58 58 59 60 60 60 60 60 60 60 61 61 61 62 61 61 61 60 60 60 59 57 56 53 51 49 48
26 28 29 30 31 33 34 36 37 38 39 41 43 44 45 46 47 49 49 49 50 50 51 51 52 53 54 54 54 55 56 56 56 56 56 57 58 58 59 59 59 58 57 57 57 57 56 54 52 51 49 47 45 43
23 25 26 27 29 30 32 33 35 36 37 38 39 40 41 41 42 43 43 44 45 46 48 49 49 50 50 51 51 51 52 52 53 53 54 55 56 57 57 56 55 54 53 54 53 52 51 49 48 47 46 43 41 39
Wind_Direction
221 221 222 224 225 225 227 228 232 234 235 226 218 203 215 218 160 133 118 109 109 110 111 110 103 95 114 138 158 171 191 208 220 232 233 233 237 241 244 246 250 251 253 259 263 266 266 266 269 273 276 277 277 278
223 222 220 220 223 224 225 229 229 234 238 237 235 221 215 219 224 222 195 160 145 139 135 131 133 136 139 138 136 137 152 163 182 207 219 220 232 239 243 248 249 252 254 259 262 270 272 270 271 275 279 280 282 286
222 222 223 221 220 224 226 228 228 229 233 234 236 237 229 222 222 225 233 242 232 213 206 207 194 189 196 193 191 200 205 214 234 249 265 265 262 266 266 273 269 269 272 275 277 276 277 280 284 284 285 289 291 292
218 219 223 224 223 224 226 227 229 228 230 232 234 234 235 231 231 227 230 236 242 241 236 237 245 246 247 247 242 241 236 241 256 260 262 266 268 271 278 280 279 278 282 283 285 284 288 289 289 290 289 290 293 294
217 219 219 224 224 225 226 227 227 229 230 233 233 233 233 236 238 234 233 235 236 237 237 238 239 247 250 250 253 249 250 256 264 265 269 274 275 276 284 285 283 285 287 288 290 290 290 289 291 294 294 294 293 293
217 220 220 221 225 226 227 227 229 229 232 233 235 238 237 239 239 238 234 236 237 235 237 241 244 247 250 255 255 254 258 263 269 273 272 271 276 279 279 279 282 286 285 285 284 287 289 290 292 294 296 297 298 299
217 219 221 222 224 226 227 228 227 229 231 234 236 237 239 240 243 245 243 241 241 243 246 250 252 252 253 254 249 252 252 260 268 274 276 276 278 280 280 276 280 282 285 287 288 289 290 292 294 297 298 300 302 304
218 219 222 223 224 226 227 229 230 231 231 234 236 238 240 242 242 243 242 245 247 251 255 258 260 258 257 255 253 257 261 266 270 274 277 278 281 283 280 282 283 287 290 291 292 293 294 296 299 301 302 304 304 306
220 219 221 223 226 226 227 229 231 231 233 235 235 238 241 243 243 243 245 245 247 249 253 257 259 261 263 262 262 264 267 269 270 274 277 280 284 287 285 287 289 291 292 292 292 294 296 300 302 302 304 306 308 309
220 222 221 223 227 227 228 229 230 231 232 234 237 239 240 241 244 247 247 248 249 250 251 254 258 261 264 265 264 266 269 271 272 275 282 285 288 284 284 286 290 292 294 296 295 297 300 303 306 307 307 307 307 306
221 222 223 223 226 228 227 229 231 232 233 234 235 237 239 241 243 245 247 251 252 252 253 255 258 260 262 265 267 268 270 271 276 279 280 282 282 279 283 289 291 293 294 296 298 302 304 304 304 305 305 307 306 308
221 222 223 224 226 228 229 229 231 232 231 233 235 235 237 239 242 244 247 249 251 254 253 254 257 260 263 265 268 270 271 274 279 281 284 284 276 280 286 290 292 293 293 294 297 300 301 302 304 304 307 307 307 307
222 223 224 225 226 228 229 231 232 233 234 233 234 235 238 241 241 243 245 247 249 252 253 255 259 261 265 267 269 271 273 276 279 283 282 276 277 283 286 287 288 291 294 295 297 300 301 302 303 305 306 308 307 307
225 225 226 225 226 228 229 232 233 234 235 235 235 236 238 240 244 245 245 245 247 251 252 254 256 260 263 265 268 271 273 275 276 278 274 277 281 282 284 286 288 291 293 294 298 301 303 304 305 307 308 307 306 303
227 227 227 227 227 228 231 231 233 235 236 237 237 237 239 242 243 245 247 248 248 249 251 253 255 257 261 263 266 269 271 272 273 271 275 279 280 281 283 286 288 291 293 295 298 300 303 305 306 307 307 306 303 302
227 228 229 229 229 228 230 232 233 234 236 238 239 240 241 242 244 245 247 250 252 253 253 254 256 259 262 265 267 269 271 271 271 276 279 281 281 282 285 288 289 291 293 296 300 301 304 304 305 304 304 303 301 301
228 228 230 230 231 231 232 232 234 235 236 238 239 241 243 243 244 246 248 250 252 254 256 258 260 261 265 268 270 270 269 272 276 278 280 282 284 286 288 289 291 293 296 297 299 301 302 303 303 302 301 300 300 302
229 230 231 232 232 233 233 233 235 237 236 238 241 242 242 245 247 247 249 253 255 255 256 258 260 263 264 266 266 267 271 275 277 280 282 283 284 286 288 290 292 295 296 299 300 300 300 301 300 299 300 300 302 303
228 230 231 232 233 234 236 236 236 237 238 238 240 241 244 246 248 249 250 252 254 256 258 260 263 263 264 265 268 270 272 274 277 280 282 283 284 287 289 292 295 297 298 298 299 299 299 299 299 300 300 302 302 303
227 229 230 232 234 236 237 238 239 239 240 240 241 244 246 249 250 250 251 254 256 257 258 259 262 262 264 267 270 272 274 276 279 281 283 285 287 289 291 293 295 295 296 297 297 297 297 298 299 300 301 301 303 302
229 230 231 233 235 237 239 241 243 243 243 243 244 245 247 251 253 253 254 255 258 259 260 261 260 262 265 268 270 273 275 277 279 282 284 286 288 290 290 290 292 293 294 295 295 296 296 297 299 300 300 301 301 301
228 231 233 234 235 239 240 242 244 246 246 246 247 247 248 251 253 254 255 257 259 260 260 260 262 263 266 269 272 274 276 279 281 283 285 285 285 286 288 289 290 291 292 293 293 294 295 297 298 299 300 300 301 302
228 230 233 236 237 239 241 245 247 247 247 248 248 249 250 250 252 253 254 256 259 260 261 263 265 268 271 273 274 276 278 279 279 281 282 283 284 285 286 287 288 290 290 291 292 293 296 297 298 299 299 301 303 304
230 231 233 236 239 241 242 245 247 247 247 247 249 251 251 252 252 253 255 258 260 262 264 266 269 270 273 274 275 275 277 278 280 281 281 282 282 283 284 285 287 287 289 291 292 295 296 298 298 299 301 303 304 305
232 232 233 235 236 238 239 240 244 245 245 246 245 246 247 250 252 255 258 259 262 264 265 267 268 269 271 273 274 274 275 276 278 279 281 282 283 284 283 283 285 287 288 291 294 295 297 297 298 300 302 303 304 306
232 231 233 232 232 233 234 236 238 240 242 246 249 251 252 253 256 261 262 261 261 261 262 264 268 273 274 274 275 275 275 276 278 280 281 282 282 282 284 284 286 288 290 291 293 295 295 298 300 301 301 303 305 305
227 226 228 230 230 231 235 238 240 243 245 247 250 253 255 256 255 253 253 254 259 263 266 268 270 271 271 271 272 273 275 276 278 280 281 282 283 285 286 288 288 288 289 293 294 295 298 299 300 301 304 305 305 305
225 226 229 231 233 235 239 243 244 245 246 246 247 248 250 249 247 248 252 256 259 262 265 267 268 269 270 271 273 274 276 277 278 279 281 284 285 286 286 286 287 290 292 292 295 297 298 299 302 304 304 304 304 305
236 238 240 240 241 240 240 240 241 242 244 248 251 253 254 254 255 256 259 261 263 265 266 267 268 269 270 271 272 274 275 276 279 282 283 284 283 283 285 288 289 289 291 294 296 297 299 301 303 303 303 304 304 304
235 236 237 237 238 239 240 241 243 245 247 249 251 252 252 254 255 256 257 258 258 259 261 263 266 269 271 272 274 276 278 279 279 279 279 282 284 285 286 287 289 292 294 296 297 299 301 301 302 302 302 302 302 303
226 228 231 234 237 239 240 241 242 244 245 246 248 249 250 250 252 254 256 258 261 263 265 267 269 271 272 273 274 275 276 277 279 280 281 283 284 286 287 290 292 293 296 299 300 302 302 303 303 303 304 304 304 304
228 230 233 235 236 238 239 241 242 244 245 247 249 250 252 254 255 257 258 260 263 265 267 268 269 269 271 272 274 276 277 278 279 281 282 284 286 289 290 292 295 298 300 301 301 300 301 302 303 303 303 303 303 303
232 234 235 237 238 239 241 242 243 245 247 248 249 251 253 255 257 259 260 260 261 262 263 266 268 271 272 273 275 277 279 280 282 284 286 288 290 293 296 297 298 299 299 299 299 299 300 301 302 302 302 302 303 302
Height
10500 10508 10516 10525 10532 10537 10541 10546 10550 10553 10554 10556 10558 10559 10561 10563 10563 10564 10563 10564 10565 10566 10568 10570 10572 10574 10576 10579 10582 10587 10592 10597 10603 10607 10610 10613 10617 10622 10625 10629 10631 10629 10630 10631 10634 10633 10631 10624 10624 10626 10624 10619 10612 10608
10484 10493 10501 10510 10518 10525 10529 10535 10540 10545 10549 10550 10553 10555 10557 10559 10561 10562 10564 10565 10566 10567 10569 10572 10574 10576 10579 10582 10586 10588 10592 10596 10599 10601 10603 10604 10607 10610 10614 10616 10617 10613 10620 10622 10622 10616 10609 10610 10611 10609 10605 10599 10595 10588
10467 10477 10486 10495 10503 10512 10518 10523 10529 10535 10541 10544 10546 10550 10552 10554 10556 10559 10561 10563 10564 10566 10568 10570 10573 10576 10578 10581 10585 10588 10590 10592 10595 10597 10598 10600 10603 10606 10608 10608 10603 10605 10608 10609 10608 10596 10594 10594 10591 10592 10589 10582 10578 10572
10449 10460 10469 10479 10488 10495 10503 10510 10516 10523 10529 10535 10538 10542 10545 10547 10550 10553 10556 10558 10560 10562 10564 10566 10568 10571 10574 10576 10579 10582 10584 10587 10589 10590 10591 10592 10594 10596 10597 10595 10587 10594 10593 10592 10588 10581 10584 10576 10571 10573 10568 10560 10557 10548
10430 10441 10451 10462 10472 10479 10487 10495 10502 10509 10516 10522 10528 10532 10535 10539 10543 10546 10549 10552 10554 10556 10558 10561 10564 10565 10568 10570 10573 10575 10578 10580 10582 10583 10584 10583 10584 10589 10588 10582 10571 10580 10579 10579 10577 10568 10568 10560 10554 10553 10543 10537 10535 10526
10409 10422 10434 10445 10455 10463 10470 10478 10487 10494 10502 10509 10515 10520 10524 10528 10532 10537 10541 10543 10544 10548 10551 10553 10556 10557 10560 10562 10565 10568 10570 10572 10574 10575 10575 10573 10574 10577 10578 10567 10561 10567 10565 10563 10560 10553 10548 10540 10533 10530 10522 10512 10502 10494
10388 10402 10415 10426 10435 10443 10452 10461 10468 10477 10485 10493 10499 10505 10511 10515 10520 10524 10529 10532 10535 10537 10539 10543 10546 10549 10551 10554 10557 10559 10562 10563 10564 10565 10563 10563 10561 10562 10558 10544 10550 10549 10550 10544 10539 10536 10531 10522 10516 10508 10500 10489 10479 10468
10369 10382 10395 10406 10415 10424 10434 10442 10450 10460 10468 10475 10482 10489 10495 10501 10506 10510 10514 10518 10521 10524 10526 10529 10530 10533 10539 10542 10544 10547 10548 10550 10552 10553 10548 10547 10548 10544 10530 10529 10527 10529 10526 10519 10514 10507 10503 10499 10491 10481 10471 10462 10451 10438
10346 10359 10372 10386 10397 10407 10416 10423 10432 10441 10449 10457 10463 10471 10478 10483 10488 10492 10500 10505 10507 10512 10513 10512 10511 10513 10521 10525 10528 10530 10533 10533 10538 10536 10533 10536 10533 10525 10502 10504 10503 10504 10504 10501 10492 10483 10476 10471 10465 10455 10443 10429 10415 10402
10324 10339 10351 10363 10375 10387 10396 10404 10413 10421 10430 10438 10446 10455 10460 10464 10467 10476 10482 10487 10494 10496 10497 10496 10491 10496 10501 10504 10509 10513 10517 10514 10519 10520 10516 10519 10519 10496 10484 10481 10484 10478 10474 10470 10464 10457 10450 10439 10428 10418 10407 10398 10390 10379
10300 10315 10329 10340 10352 10365 10376 10385 10394 10402 10411 10418 10425 10433 10439 10443 10450 10457 10463 10472 10475 10478 10478 10475 10474 10479 10480 10483 10487 10492 10493 10494 10498 10501 10495 10501 10497 10464 10462 10465 10459 10454 10446 10437 10429 10424 10420 10414 10406 10397 10386 10373 10359 10342
10278 10290 10304 10318 10330 10341 10353 10362 10372 10382 10391 10397 10405 10412 10419 10424 10431 10439 10448 10453 10454 10454 10457 10454 10456 10459 10460 10463 10466 10467 10467 10473 10478 10479 10478 10480 10451 10446 10449 10442 10435 10429 10424 10416 10410 10406 10400 10392 10380 10370 10358 10345 10328 10311
10253 10266 10280 10293 10304 10316 10328 10340 10352 10360 10368 10378 10386 10392 10400 10406 10413 10422 10426 10426 10427 10431 10436 10440 10440 10441 10442 10442 10445 10447 10450 10451 10453 10455 10452 10432 10432 10435 10430 10425 10418 10412 10404 10395 10388 10383 10374 10363 10350 10339 10326 10311 10294 10278
10230 10243 10256 10266 10278 10291 10301 10313 10326 10335 10345 10354 10367 10374 10380 10391 10396 10399 10399 10400 10405 10409 10416 10421 10422 10423 10423 10423 10426 10427 10430 10430 10431 10428 10406 10410 10418 10411 10407 10401 10395 10387 10378 10370 10363 10354 10344 10333 10320 10307 10293 10278 10262 10248
10206 10218 10231 10242 10256 10267 10278 10287 10297 10308 10318 10331 10343 10351 10368 10370 10372 10374 10373 10375 10382 10390 10393 10395 10398 10401 10403 10405 10407 10407 10404 10409 10404 10380 10391 10398 10395 10390 10382 10376 10371 10362 10352 10344 10337 10327 10316 10303 10289 10277 10262 10249 10235 10222
10185 10197 10207 10218 10230 10240 10250 10258 10268 10281 10294 10305 10323 10337 10342 10345 10346 10346 10348 10354 10358 10363 10367 10371 10377 10381 10383 10383 10387 10382 10380 10370 10358 10370 10373 10373 10368 10362 10356 10352 10344 10332 10324 10317 10308 10296 10285 10273 10261 10248 10234 10221 10207 10195
10163 10172 10181 10192 10205 10215 10223 10232 10240 10252 10267 10286 10304 10314 10312 10317 10320 10321 10322 10325 10333 10337 10339 10346 10353 10356 10364 10364 10361 10353 10340 10340 10348 10349 10345 10342 10339 10333 10327 10321 10313 10302 10296 10286 10277 10266 10255 10243 10232 10219 10206 10194 10182 10171
10140 10149 10159 10170 10179 10188 10197 10204 10214 10226 10255 10267 10281 10285 10283 10286 10293 10299 10300 10297 10301 10307 10313 10323 10331 10339 10338 10334 10322 10314 10322 10324 10323 10321 10318 10311 10308 10303 10296 10291 10280 10274 10267 10258 10247 10237 10225 10215 10205 10193 10182 10170 10157 10147
10114 10125 10135 10144 10154 10163 10172 10180 10193 10213 10227 10241 10250 10254 10254 10259 10268 10273 10271 10268 10272 10281 10291 10303 10308 10312 10298 10288 10293 10300 10301 10300 10302 10298 10289 10279 10275 10272 10267 10259 10252 10245 10237 10228 10218 10208 10198 10188 10178 10167 10156 10146 10136 10125
10092 10103 10114 10123 10129 10137 10146 10155 10173 10188 10203 10217 10227 10231 10232 10233 10235 10242 10247 10247 10247 10252 10273 10281 10279 10266 10261 10267 10271 10278 10274 10271 10271 10268 10260 10253 10248 10242 10238 10231 10224 10216 10208 10199 10190 10181 10171 10162 10151 10141 10131 10123 10114 10103
10074 10084 10093 10101 10106 10116 10127 10135 10151 10168 10181 10189 10199 10204 10208 10210 10212 10214 10218 10219 10220 10238 10245 10243 10234 10234 10235 10248 10249 10252 10251 10244 10241 10236 10234 10228 10221 10215 10209 10201 10195 10188 10180 10171 10163 10156 10147 10137 10128 10118 10110 10101 10092 10083
10056 10063 10071 10080 10090 10097 10107 10118 10136 10151 10159 10166 10170 10177 10181 10185 10189 10192 10189 10190 10205 10213 10202 10202 10206 10206 10209 10220 10223 10221 10217 10217 10213 10210 10205 10199 10193 10186 10180 10173 10167 10161 10155 10147 10140 10132 10123 10115 10106 10098 10090 10081 10072 10063
10039 10051 10058 10064 10072 10085 10098 10107 10119 10130 10138 10142 10144 10151 10157 10159 10161 10158 10160 10172 10182 10176 10167 10176 10179 10181 10188 10195 10194 10191 10188 10189 10185 10178 10173 10169 10164 10159 10153 10147 10142 10136 10130 10123 10115 10108 10101 10093 10085 10077 10070 10062 10053 10044
10027 10036 10042 10050 10063 10075 10089 10092 10098 10103 10113 10117 10120 10125 10129 10129 10128 10127 10141 10156 10153 10149 10148 10150 10152 10155 10160 10163 10166 10166 10159 10157 10155 10151 10146 10140 10135 10131 10126 10121 10116 10111 10104 10098 10092 10085 10078 10071 10065 10057 10050 10042 10034 10025
10010 10019 10030 10041 10050 10062 10069 10071 10073 10079 10085 10082 10087 10093 10101 10102 10104 10113 10134 10134 10126 10125 10126 10124 10121 10125 10135 10137 10136 10136 10133 10130 10126 10122 10118 10113 10109 10105 10100 10096 10092 10087 10082 10076 10069 10063 10057 10051 10045 10037 10029 10022 10015 10006
10000 10012 10018 10022 10027 10032 10039 10042 10046 10050 10054 10062 10073 10080 10082 10081 10092 10112 10115 10105 10100 10097 10098 10100 10102 10108 10111 10110 10109 10106 10104 10101 10098 10095 10092 10088 10085 10082 10077 10073 10069 10065 10059 10054 10048 10043 10037 10030 10023 10017 10008 10001 9996 9989
9987 9989 9992 9999 10007 10014 10017 10021 10027 10035 10044 10052 10059 10062 10069 10077 10085 10087 10076 10072 10077 10078 10081 10084 10086 10087 10086 10084 10083 10080 10078 10076 10075 10073 10070 10067 10063 10060 10056 10052 10047 10042 10038 10033 10029 10023 10016 10009 10002 9996 9988 9981 9976 9970
9972 9977 9982 9989 9997 10002 10008 10014 10019 10024 10029 10035 10036 10040 10049 10057 10056 10056 10058 10061 10062 10063 10064 10064 10064 10064 10062 10061 10060 10059 10058 10057 10055 10052 10048 10045 10042 10038 10035 10031 10026 10022 10018 10014 10009 10003 9996 9990 9983 9976 9969 9962 9954 9949
9967 9973 9978 9983 9988 9993 9995 9998 10004 10008 10011 10018 10022 10027 10033 10035 10036 10038 10039 10040 10041 10042 10042 10041 10040 10040 10041 10040 10040 10039 10038 10036 10034 10032 10029 10026 10022 10019 10016 10013 10008 10004 10000 9995 9989 9983 9977 9971 9965 9958 9951 9945 9937 9931
9959 9963 9967 9971 9974 9978 9984 9988 9992 9997 10001 10004 10007 10010 10013 10015 10017 10018 10020 10021 10021 10021 10021 10022 10022 10022 10023 10022 10021 10020 10019 10017 10015 10012 10009 10007 10004 10001 9998 9994 9989 9984 9979 9974 9969 9964 9959 9953 9947 9943 9938 9932 9924 9916
9948 9953 9957 9960 9965 9969 9973 9976 9980 9983 9986 9989 9992 9994 9996 9999 10001 10002 10004 10004 10005 10006 10007 10008 10008 10007 10005 10004 10003 10002 10000 9998 9997 9995 9992 9989 9985 9982 9978 9975 9970 9966 9962 9957 9950 9945 9939 9934 9930 9924 9920 9915 9910 9904
9943 9946 9949 9953 9956 9959 9962 9966 9969 9972 9975 9977 9979 9981 9983 9985 9987 9987 9989 9990 9991 9992 9992 9991 9990 9989 9988 9987 9986 9985 9983 9981 9979 9977 9974 9971 9967 9963 9960 9957 9952 9948 9944 9938 9933 9928 9923 9918 9914 9909 9904 9900 9896 9892
9937 9940 9942 9945 9948 9951 9953 9955 9958 9960 9963 9965 9967 9969 9970 9972 9973 9974 9976 9976 9976 9975 9975 9975 9975 9974 9973 9971 9970 9968 9966 9963 9961 9959 9956 9953 9950 9946 9942 9939 9935 9931 9927 9922 9917 9912 9908 9905 9900 9896 9891 9888 9884 9880